Hourly Data Report for September 13, 2017

All times are specified in Local Standard Time (LST). Add 1 hour to adjust for Daylight Saving Time where and when it is observed.

PORT ALBERNI (AUT)
BRITISH COLUMBIA

49°18'59.700" N
124°55'36.600" W
76.20 m
1036B06
71475
WQC

Download Data

Hourly Data (September 2017)
Hourly Data Report for September 13, 2017
Temp Definition
°C
Dew Point Temp Definition
°C
Rel Hum Definition
%
Wind Dir Definition
10's deg

Wind Spd Definition
km/h
Visibility Definition
km
Stn Press Definition
kPa
Hmdx Definition


Wind Chill Definition


Weather Definition


TIME
00:00 11.2 8.6 84 28 3   100.61     LegendNANA
01:00 8.5 6.9 90 32 10   100.60     LegendNANA
02:00 8.4 7.5 94 30 5   100.60     LegendNANA
03:00 6.7 6.0 95 32 3   100.62     LegendNANA
04:00 6.8 6.3 96 32 3   100.65     LegendNANA
05:00 6.3 5.6 95 32 5   100.65     LegendNANA
06:00 5.1 4.5 96 31 4   100.68     LegendNANA
07:00 7.4 6.9 97 32 3   100.73     LegendNANA
08:00 11.5 7.8 78 33 5   100.73     LegendNANA
09:00 14.1 6.3 59 33 2   100.73     LegendNANA
10:00 16.8 6.1 49 7 4   100.70     LegendNANA
11:00 18.7 6.2 44 7 3   100.65     LegendNANA
12:00 20.5 5.9 39 19 5   100.62     LegendNANA
13:00 22.4 6.1 35 36 9   100.57     LegendNANA
14:00 22.4 4.2 30 10 6   100.51     LegendNANA
15:00 23.0 2.5 26 3 7   100.48     LegendNANA
16:00 23.3 2.1 25 34 6   100.46     LegendNANA
17:00 22.9 -0.2 22 33 8   100.42     LegendNANA
18:00 20.9 2.7 30 32 11   100.44     LegendNANA
19:00 19.5 2.4 32 34 15   100.45     LegendNANA
20:00 12.6 4.0 56 20 3   100.52     LegendNANA
21:00 10.4 5.0 70 27 2   100.55     LegendNANA
22:00 8.4 5.1 80 31 3   100.57     LegendNANA
23:00 7.5 5.1 85 5 5   100.61     LegendNANA

Notes on Data Quality.

Legend

  • E = Estimated
  • M = Missing
  • NA = Not Available
  • ‡ = Partner data that is not subject to review by the National Climate Archives
Date modified: